Regional Weather Roundup
Issued by NWS Kansas City/Pleasant Hill, MO

Home | Current Version | Previous Version | Graphics & Text | Print | Product List | Glossary Off
Versions: 1 2 3 4 5 6 7 8 9 10 11 12 13 14 15 16 17 18 19 20 21 22 23 24 25 26 27 28 29 30 31 32 33 34 35 36 37 38 39 40 41 42 43 44 45 46 47 48 49 50

000
ASUS43 KEAX 230304
RWREAX

WEATHER ROUNDUP FOR EASTERN KANSAS AND NORTHWEST MISSOURI
NATIONAL WEATHER SERVICE KANSAS CITY/PLEASANT HILL MO
1000 PM CDT MON SEP 22 2014

KSZ040-057-103>105-MOZ028-029-037-043-230400-
...KANSAS CITY METROPOLITAN AREA...

CITY           SKY/WX    TMP DP  RH WIND       PRES   REMARKS
K.C. INTL      CLOUDY    61  52  72 SE7       30.23S
K.C. DOWNTOWN  MOCLDY    69  51  52 SE7       30.22S
LEES SUMMIT    PTCLDY    64  51  62 SE5       30.24S
OLATHE - IXD   MOCLDY    62  52  69 SE8       30.24S
OLATHE - OJC   MOCLDY    61  52  72 SE5       30.23S
LAWRENCE       MOCLDY    56  52  86 CALM      30.22S

$$

MOZ001>008-011>017-020>025-030>033-038>040-044>046-053-054-230400-
...NORTHERN AND CENTRAL MISSOURI...

CITY           SKY/WX    TMP DP  RH WIND       PRES   REMARKS
ST. JOSEPH     MOCLDY    57  53  86 SW3       30.22S
MOSBY          MOCLDY    55  55 100 CALM      30.24R
WHITEMAN AFB   CLEAR     59  53  81 CALM      30.23F
CLINTON        MOCLDY    55  54  94 CALM      30.25R
SEDALIA        PTCLDY    60  51  72 SE3       30.26R
WARSAW         NOT AVBL
MARSHALL       PTCLDY    63  52  67 SE5       30.26R
CHILLICOTHE      N/A     56  53  90 CALM      30.26S
MOBERLY        CLEAR     54  48  82 SE3       30.27R
KIRKSVILLE     PTCLDY    52  32  46 CALM      30.26F

$$

MOZ041-047>049-056>058-063>065-088>090-097-230400-
...EASTERN AND SOUTHERN MISSOURI...

CITY           SKY/WX    TMP DP  RH WIND       PRES   REMARKS
ST. LOUIS INTL PTCLDY    63  50  62 CALM      30.27R
SPIRIT OF STL  CLEAR     54  52  93 CALM      30.26R
COLUMBIA       PTCLDY    60  50  69 E6        30.27R
JEFFERSON CITY PTCLDY    55  49  80 CALM      30.26R
MEXICO         CLEAR     52  52 100 CALM      30.27R
ROLLA          CLEAR     52  45  77 E6        30.25S
LEBANON        PTCLDY    57  48  72 NE6       30.26S
OSAGE BEACH    PTCLDY    54  48  82 CALM      30.25S
SPRINGFIELD    PTCLDY    62  49  62 E7        30.24S
BRANSON        CLEAR     54  52  94 CALM      30.25S
NEVADA         PTCLDY    59  54  82 CALM      30.25R
JOPLIN         PTCLDY    61  53  75 E7        30.23S
WEST PLAINS    CLEAR     54  50  86 CALM      30.26R

$$

IAZ060-094-KSZ022-034>040-054-083-096-NEZ052-066-093-230400-
...KANSAS...SOUTHEAST NEBRASKA AND IOWA...

CITY           SKY/WX    TMP DP  RH WIND       PRES   REMARKS
TOPEKA         MOCLDY    59  53  80 CALM      30.22S
MANHATTAN      PTCLDY    63  52  67 CALM      30.21R
EMPORIA        MOCLDY    59  53  80 SE8       30.22S
CHANUTE        PTCLDY    59  54  83 CALM      30.23R
WICHITA        MOCLDY    66  47  50 SE8       30.20R
OMAHA          MOCLDY    65  49  56 S7        30.19S
LINCOLN        CLOUDY    62  52  69 S8        30.20R
FALLS CITY     MOCLDY    62  52  69 S7        30.20S
LAMONI         MOCLDY    60  51  72 SE7       30.24R
DES MOINES     PTCLDY    61  51  70 S7        30.22S

$$



USA.gov is the U.S. government's official web portal to all federal, state and local government web resources and services.